Location: Baumgartsau
(48.4586°N, 14.0864°E)
Time: 01:44:04
(UTC+00:00)

SL-16 R/B - Pass Details

Date: 11 August 2020
Orbit: 843 x 845 km, 71.0° (Epoch: 26 September)

Event Time Altitude Azimuth Distance (km) Brightness Sun altitude
Rises 20:51:09 0° 330° (NNW) 3,416 7.0 -19.6°
Reaches altitude 10° 20:53:36 10° 330° (NNW) 2,477 5.9 -19.9°
Maximum altitude 20:59:17 77° 245° (WSW) 871 2.2 -20.4°
Enters shadow 21:01:28 39° 167° (SSE) 1,245 2.6 -20.6°
